[[{"header":{"parameterUnit":"m.s-1","parameterCategory":1,"la1":30.2991,"la2":30.254,"lo1":-89.0895,"lo2":-89.0444,"dy":0.0017,"dx":0.0017,"nx":28,"ny":28,"refTime":"2025-05-15T09:00:00:Z","depth":0,"parameterNumber":2,"parameterNumberName":"U-component_of_WINDS"},"data":[0,0,0,0,0,0,0,0,0,0,0,0,0,0,0,0,0,0,0,0,0,0,0,0,0,0,0,0,0,0,0,0,0,0,0,0,0,0,0,0,0,0,0,0,0,0,0,0,0,0,0,0,0,0,0,0,0,0,1.223,1.223,0,1.2147,1.2146,1.2145,1.2058,1.2057,1.2056,1.2055,1.1971,1.197,1.1969,0,0,0,0,0,0,0,0,0,0,0,0,0,1.2316,1.2315,1.2231,1.2229,1.2228,1.2147,1.2146,1.2145,1.2059,1.2057,1.2056,1.2054,1.1971,1.197,1.1968,0,0,0,0,0,0,0,0,0,0,0,0,0,1.2261,1.2315,1.2231,1.2176,1.217,1.2147,1.2146,1.2144,1.2059,1.2057,1.2055,1.2054,1.1972,1.197,1.1968,1.1993,0,0,1.1963,1.1962,0,0,0,0,0,0,0,0,1.2264,1.2257,1.2185,1.2179,1.2173,1.2111,1.2145,1.2094,1.2059,1.2101,1.2055,1.2053,1.2019,1.2013,1.2002,1.1989,1.1986,1.1963,1.1962,1.1961,1.1961,0,0,0,0,0,0,0,1.2268,1.2261,1.2197,1.2184,1.2177,1.2155,1.2145,1.2135,1.2071,1.2097,1.2091,1.2082,1.2015,1.2003,1.1999,1.1985,1.1963,1.1961,1.196,1.196,1.1987,1.1988,0,0,0,0,0,0,1.228,1.2264,1.22,1.2195,1.2215,1.2155,1.2144,1.2133,1.2071,1.206,1.2084,1.2078,1.2007,1.2001,1.1996,1.2019,1.1961,1.196,1.1959,1.1985,1.1987,1.1989,0,0,0,0,0,0,1.2282,1.2275,1.2203,1.2228,1.2217,1.2156,1.2144,1.2132,1.212,1.2061,1.2049,1.2083,1.2006,1.1998,1.1994,1.2015,1.1959,1.1957,1.1983,1.1986,1.1988,1.2068,0,0,0,0,0,0,1.2285,1.2276,1.2285,1.2229,1.2216,1.2203,1.2145,1.2132,1.2117,1.2109,1.2057,1.2047,1.2004,1.1997,1.1992,1.2012,1.1956,1.1981,1.1984,1.1987,1.2063,1.2073,1.2082,0,0,0,0,0,1.2288,1.2312,1.2286,1.2279,1.2226,1.2205,1.2197,1.2147,1.2119,1.2127,1.2089,1.2048,1.2014,1.1997,1.1991,1.2011,1.1979,1.1983,1.1987,1.2059,1.2071,1.2081,0,0,0,0,0,0,1.2373,1.2303,1.2274,1.228,1.2249,1.219,1.2199,1.2162,1.2138,1.2132,1.2071,1.206,1.2063,1.2036,1.2019,1.2031,1.1991,1.1994,1.2048,1.2059,1.2068,1.2073,1.1954,0,0,0,0,0,1.2393,1.2381,1.2321,1.2332,1.2317,1.2261,1.225,1.2214,1.2179,1.2166,1.2127,1.2096,1.2077,1.2067,1.2047,1.2059,1.2046,1.207,1.2079,1.2087,1.209,1.2093,1.2102,1.2002,1.2002,1.2002,0,0,1.2432,1.2393,1.2389,1.2348,1.2319,1.2308,1.2251,1.2242,1.2233,1.2165,1.2158,1.2129,1.2089,1.2093,1.2093,1.2071,1.2114,1.2092,1.2098,1.2097,1.2098,1.2107,1.2116,1.2005,1.2004,1.2004,0,0,1.2499,1.2469,1.2473,1.2446,1.2403,1.2365,1.2367,1.2314,1.2291,1.2283,1.2231,1.222,1.219,1.2164,1.2146,1.2202,1.2163,1.2198,1.2245,1.2249,1.2257,1.2263,1.2282,1.2289,1.2201,1.2201,1.2201,0,1.2554,1.2535,1.2481,1.2475,1.2457,1.2394,1.2398,1.2375,1.2328,1.2318,1.2294,1.2254,1.2223,1.2219,1.2233,1.2222,1.222,1.2203,1.226,1.2266,1.2271,1.2288,1.2296,1.2206,1.2205,1.2205,1.2204,0,1.2604,1.2592,1.2601,1.2557,1.254,1.254,1.2485,1.2475,1.2441,1.2405,1.2398,1.2358,1.2328,1.2325,1.2292,1.2316,1.2304,1.2271,1.2229,1.2286,1.2301,1.2307,1.2212,1.221,1.2209,1.2208,0,0,1.2722,1.2646,1.2651,1.2629,1.2577,1.2566,1.2563,1.2533,1.2525,1.2495,1.249,1.2466,1.2434,1.2415,1.2378,1.2381,1.2426,1.2348,1.2346,1.2362,1.2449,1.2473,1.2481,1.24,1.2402,1.2402,1.2452,0,1.2778,1.2766,1.2717,1.272,1.2708,1.2647,1.2644,1.2611,1.2579,1.2563,1.2527,1.251,1.2471,1.2458,1.2459,1.2421,1.2443,1.2417,1.2394,1.2394,1.2405,1.2489,1.2515,1.2563,1.2457,1.2458,1.2459,0,1.2842,1.2815,1.2817,1.2764,1.2757,1.2755,1.2722,1.2709,1.2671,1.2646,1.2624,1.2582,1.2574,1.2536,1.2524,1.2507,1.2495,1.2475,1.2476,1.2471,1.2429,1.2485,1.2578,1.2585,1.2468,1.2467,1.2467,0,1.2926,1.289,1.2886,1.2869,1.2808,1.2808,1.2782,1.2742,1.2727,1.2699,1.2689,1.2661,1.2646,1.2625,1.2577,1.2554,1.257,1.2528,1.2549,1.255,1.2554,1.2554,1.2644,1.2549,1.2549,1.2549,1.2548,0,1.2993,1.2996,1.2922,1.292,1.2921,1.2864,1.2867,1.2836,1.2801,1.2791,1.2738,1.273,1.2667,1.2652,1.2614,1.2609,1.2603,1.2582,1.2572,1.2586,1.2589,1.2576,1.2571,1.255,1.255,1.255,1.2549,0,1.3086,1.3036,1.3028,1.297,1.2956,1.2959,1.291,1.2905,1.2868,1.2856,1.285,1.2794,1.2772,1.2722,1.2689,1.2663,1.2667,1.265,1.268,1.2673,1.2696,1.2694,1.2781,1.2789,1.269,1.2691,1.2692,0,1.3131,1.3131,1.3074,1.3063,1.3039,1.3023,1.3007,1.2952,1.2937,1.2893,1.2893,1.2868,1.2845,1.2814,1.277,1.2743,1.2723,1.2756,1.2719,1.2733,1.2722,1.2722,1.2721,1.2763,1.2765,1.2766,1.2767,0,1.3216,1.3191,1.317,1.314,1.3123,1.3097,1.3068,1.3062,1.2999,1.2986,1.2963,1.2945,1.291,1.2885,1.2852,1.2825,1.2785,1.2779,1.2782,1.2795,1.2812,1.2802,1.27,1.2777,1.2776,1.2775,1.2774,1.2774,1.3285,1.3282,1.3241,1.3219,1.3191,1.3165,1.3157,1.3119,1.31,1.3066,1.3035,1.3015,1.2976,1.2927,1.2903,1.2887,1.2867,1.2872,1.2873,1.2874,1.288,1.2816,1.2881,1.2881,1.288,1.288,1.288,0,1.3366,1.3336,1.3316,1.3277,1.326,1.3224,1.319,1.3177,1.316,1.3127,1.3105,1.3079,1.3054,1.3008,1.298,1.2975,1.2956,1.297,1.2969,1.2963,1.29,1.29,1.2985,1.2985,1.2985,1.2985,1.2985,1.2985,1.3405,1.3398,1.3369,1.3348,1.3318,1.3298,1.3281,1.3257,1.323,1.3203,1.3182,1.3152,1.3113,1.3081,1.3057,1.3044,1.3035,1.3054,1.3035,1.2977,1.2967,1.2958,1.2957,1.3053,1.3053,1.3098,1.3099,1.3099]},{"header":{"parameterUnit":"m.s-1","parameterCategory":1,"la1":30.2991,"la2":30.254,"lo1":-89.0895,"lo2":-89.0444,"dy":0.0017,"dx":0.0017,"nx":28,"ny":28,"refTime":"2025-05-15T09:00:00:Z","depth":0,"parameterNumber":3,"parameterNumberName":"V-component_of_WINDS"},"data":[0,0,0,0,0,0,0,0,0,0,0,0,0,0,0,0,0,0,0,0,0,0,0,0,0,0,0,0,0,0,0,0,0,0,0,0,0,0,0,0,0,0,0,0,0,0,0,0,0,0,0,0,0,0,0,0,0,0,5.7344,5.7344,0,5.7379,5.7379,5.738,5.7321,5.7319,5.7317,5.7316,5.7346,5.7348,5.7351,0,0,0,0,0,0,0,0,0,0,0,0,0,5.722,5.7223,5.7344,5.7344,5.7345,5.7379,5.7379,5.738,5.7322,5.7319,5.7317,5.7315,5.7345,5.7348,5.7351,0,0,0,0,0,0,0,0,0,0,0,0,0,5.7266,5.7224,5.7344,5.732,5.7318,5.7379,5.7379,5.738,5.7322,5.7319,5.7316,5.7314,5.7344,5.7348,5.7352,5.7435,0,0,5.7364,5.7366,0,0,0,0,0,0,0,0,5.7264,5.7271,5.7323,5.7322,5.732,5.7343,5.7347,5.7398,5.7323,5.7321,5.7316,5.7312,5.7347,5.735,5.7363,5.7437,5.7438,5.7364,5.7367,5.7368,5.7369,0,0,0,0,0,0,0,5.7261,5.7269,5.7357,5.7324,5.7322,5.7306,5.7309,5.7356,5.735,5.732,5.7316,5.7322,5.7345,5.736,5.7364,5.7439,5.7364,5.7368,5.737,5.7372,5.7583,5.7586,0,0,0,0,0,0,5.7261,5.7267,5.7356,5.7358,5.7284,5.731,5.7314,5.7338,5.7349,5.7348,5.7324,5.7319,5.7354,5.7359,5.7364,5.7463,5.7368,5.7372,5.7374,5.7579,5.7583,5.7587,0,0,0,0,0,0,5.7259,5.727,5.7355,5.7312,5.7321,5.7316,5.7343,5.7341,5.7355,5.7352,5.735,5.734,5.7352,5.7359,5.7419,5.7464,5.7374,5.7377,5.7576,5.7581,5.7585,5.7662,0,0,0,0,0,0,5.7256,5.7269,5.7302,5.7313,5.7324,5.741,5.7346,5.7343,5.7363,5.7356,5.7367,5.7365,5.735,5.7413,5.7423,5.7467,5.738,5.7571,5.7578,5.7584,5.7655,5.7669,5.7681,0,0,0,0,0,5.7251,5.7321,5.7304,5.7315,5.7365,5.7413,5.7419,5.7402,5.7366,5.7399,5.7397,5.7365,5.7457,5.742,5.743,5.7477,5.7569,5.7576,5.7583,5.765,5.7666,5.768,0,0,0,0,0,0,5.7313,5.7322,5.7303,5.7379,5.7396,5.7403,5.7443,5.742,5.7446,5.7438,5.7414,5.7417,5.7482,5.7485,5.7443,5.7558,5.7507,5.7516,5.7554,5.757,5.7582,5.758,5.7384,0,0,0,0,0,5.7336,5.7377,5.7381,5.7447,5.7457,5.7449,5.7469,5.7455,5.7471,5.7477,5.7479,5.7494,5.7526,5.7548,5.7578,5.7656,5.7657,5.7693,5.7705,5.7716,5.7724,5.7766,5.7782,5.7611,5.7611,5.761,0,0,5.7383,5.7393,5.7419,5.746,5.7471,5.7512,5.7455,5.75,5.7529,5.7483,5.754,5.7543,5.7558,5.7627,5.7658,5.7632,5.7772,5.7725,5.7733,5.7736,5.7775,5.7791,5.7806,5.7616,5.7615,5.7614,0,0,5.7489,5.7501,5.7558,5.7571,5.759,5.7585,5.7599,5.761,5.761,5.7668,5.7634,5.7668,5.7724,5.7736,5.775,5.7862,5.7834,5.7872,5.7937,5.7978,5.7992,5.8004,5.8044,5.8059,5.7881,5.7881,5.7881,0,5.7544,5.7606,5.7589,5.7638,5.7656,5.7619,5.7675,5.7688,5.7715,5.7728,5.7699,5.777,5.7777,5.7849,5.7877,5.7889,5.7903,5.7871,5.7992,5.8003,5.8014,5.8052,5.8067,5.7886,5.7885,5.7885,5.7884,0,5.7673,5.7716,5.776,5.779,5.7813,5.7865,5.7855,5.788,5.7864,5.7861,5.792,5.7928,5.7959,5.7975,5.7958,5.8045,5.8028,5.7996,5.7944,5.8036,5.8071,5.8085,5.7892,5.7891,5.7889,5.7888,0,0,5.7818,5.784,5.7856,5.7869,5.7888,5.792,5.797,5.8003,5.8025,5.8045,5.8085,5.8135,5.8106,5.8121,5.8106,5.8142,5.8231,5.8105,5.8105,5.8128,5.8326,5.8351,5.8368,5.8212,5.8215,5.8217,5.8325,0,5.7924,5.8013,5.8,5.8085,5.8124,5.809,5.8133,5.8149,5.8147,5.8179,5.8177,5.8212,5.8171,5.818,5.8215,5.8213,5.827,5.8205,5.8249,5.8251,5.8246,5.8386,5.8412,5.8513,5.8339,5.8341,5.8343,0,5.8059,5.8087,5.8177,5.8191,5.8207,5.8247,5.8276,5.8307,5.8324,5.832,5.8339,5.8317,5.8366,5.8313,5.8379,5.8335,5.8352,5.8354,5.8357,5.8361,5.8302,5.8393,5.8545,5.8561,5.8364,5.8363,5.8361,0,5.8156,5.8216,5.8278,5.829,5.8308,5.8337,5.8345,5.8359,5.838,5.8404,5.8417,5.8446,5.8462,5.8485,5.8471,5.8434,5.854,5.8486,5.8537,5.8538,5.856,5.8559,5.8718,5.8572,5.8572,5.8571,5.8571,0,5.8276,5.8332,5.8322,5.836,5.8422,5.8406,5.8467,5.847,5.8483,5.852,5.8491,5.8525,5.8506,5.8538,5.8528,5.8584,5.8591,5.8589,5.8585,5.8592,5.8592,5.8602,5.8595,5.8575,5.8575,5.8574,5.8573,0,5.8395,5.839,5.8455,5.8468,5.8472,5.8517,5.8527,5.8561,5.8559,5.8606,5.8616,5.8611,5.8648,5.8637,5.8676,5.8669,5.8741,5.8728,5.8736,5.8733,5.8785,5.8781,5.8956,5.8978,5.8818,5.8819,5.8821,0,5.8471,5.8514,5.8532,5.8556,5.8568,5.8606,5.8628,5.8613,5.8637,5.866,5.8691,5.8727,5.8754,5.8815,5.8814,5.8844,5.8832,5.8891,5.8836,5.8841,5.8833,5.883,5.8834,5.8902,5.8904,5.8905,5.8906,0,5.8608,5.8604,5.8638,5.8672,5.8699,5.8724,5.8746,5.8766,5.8753,5.8781,5.882,5.8842,5.8884,5.8919,5.8946,5.8952,5.8927,5.8924,5.8937,5.8944,5.8947,5.8946,5.8766,5.892,5.8918,5.8917,5.8917,5.8916,5.8707,5.8745,5.8764,5.8802,5.8818,5.884,5.8874,5.8876,5.891,5.8944,5.8933,5.8978,5.8993,5.9028,5.9038,5.9072,5.9049,5.9068,5.9073,5.9078,5.9085,5.8942,5.9077,5.9076,5.9076,5.9076,5.9075,0,5.8842,5.8854,5.889,5.8923,5.8954,5.893,5.8953,5.8979,5.902,5.9038,5.9066,5.9111,5.9146,5.9148,5.9179,5.9206,5.9195,5.9215,5.9212,5.9214,5.9104,5.9089,5.9223,5.9223,5.9223,5.9223,5.9223,5.9223,5.8916,5.8978,5.8977,5.9046,5.9056,5.9102,5.9117,5.9136,5.9151,5.9203,5.9233,5.9235,5.9246,5.9279,5.9309,5.9308,5.9321,5.9345,5.934,5.9237,5.9222,5.9208,5.9194,5.9348,5.9348,5.9448,5.9449,5.945]}]]